Private Wetterstation Sandau
Wetterdaten: Freitag, 22.06.2012
Datum Zeit Temp. A. Feuchte A. Luftdruck Regen Wind Richtung Richtung Taupunkt Windchill
22.06.2012 00:01 15,9 C 86 % 1013,3 hPa 0,0 l/m 0,0 km/h (0 Bft) SO 135 13,6 C 15,9 C
22.06.2012 00:06 15,9 C 86 % 1013,2 hPa 0,0 l/m 0,0 km/h (0 Bft) S-SO 157 13,6 C 15,9 C
22.06.2012 00:11 15,9 C 86 % 1013,2 hPa 0,0 l/m 0,0 km/h (0 Bft) SO 135 13,6 C 15,9 C
22.06.2012 00:16 15,9 C 87 % 1013,1 hPa 0,0 l/m 0,0 km/h (0 Bft) O-SO 112 13,7 C 15,9 C
22.06.2012 00:21 15,8 C 87 % 1012,9 hPa 0,0 l/m 0,0 km/h (0 Bft) O-SO 112 13,6 C 15,8 C
22.06.2012 00:26 15,8 C 87 % 1013,0 hPa 0,0 l/m 2,5 km/h (1 Bft) SO 135 13,6 C 15,8 C
22.06.2012 00:31 15,8 C 87 % 1013,1 hPa 0,0 l/m 1,4 km/h (1 Bft) O-SO 112 13,6 C 15,8 C
22.06.2012 00:36 15,8 C 87 % 1013,1 hPa 0,0 l/m 0,0 km/h (0 Bft) S-SO 157 13,6 C 15,8 C
22.06.2012 00:41 15,8 C 87 % 1013,2 hPa 0,0 l/m 0,0 km/h (0 Bft) SO 135 13,6 C 15,8 C
22.06.2012 00:46 15,8 C 87 % 1013,2 hPa 0,0 l/m 0,0 km/h (0 Bft) O-SO 112 13,6 C 15,8 C
22.06.2012 00:51 15,8 C 87 % 1013,1 hPa 0,0 l/m 0,0 km/h (0 Bft) SO 135 13,6 C 15,8 C
22.06.2012 00:56 15,8 C 87 % 1013,0 hPa 0,0 l/m 2,2 km/h (1 Bft) SO 135 13,6 C 15,8 C
22.06.2012 01:01 15,8 C 87 % 1013,2 hPa 0,0 l/m 0,0 km/h (0 Bft) SO 135 13,6 C 15,8 C
22.06.2012 01:06 15,8 C 87 % 1013,1 hPa 0,0 l/m 7,6 km/h (2 Bft) O-SO 112 13,6 C 15,8 C
22.06.2012 01:11 15,8 C 87 % 1013,2 hPa 0,0 l/m 0,0 km/h (0 Bft) S-SO 157 13,6 C 15,8 C
22.06.2012 01:16 15,8 C 87 % 1013,2 hPa 0,0 l/m 0,0 km/h (0 Bft) S-SO 157 13,6 C 15,8 C
22.06.2012 01:21 15,8 C 87 % 1013,1 hPa 0,0 l/m 0,0 km/h (0 Bft) SO 135 13,6 C 15,8 C
22.06.2012 01:26 15,8 C 87 % 1013,1 hPa 0,0 l/m 4,0 km/h (1 Bft) O-SO 112 13,6 C 15,8 C
22.06.2012 01:31 15,8 C 87 % 1013,1 hPa 0,0 l/m 1,8 km/h (1 Bft) S-SO 157 13,6 C 15,8 C
22.06.2012 01:36 15,8 C 87 % 1013,0 hPa 0,0 l/m 0,0 km/h (0 Bft) SO 135 13,6 C 15,8 C
22.06.2012 01:41 15,7 C 87 % 1013,1 hPa 0,0 l/m 2,2 km/h (1 Bft) SO 135 13,5 C 15,7 C
22.06.2012 01:46 15,6 C 87 % 1013,1 hPa 0,0 l/m 0,0 km/h (0 Bft) S-SO 157 13,4 C 15,6 C
22.06.2012 01:51 15,8 C 87 % 1013,4 hPa 0,0 l/m 1,8 km/h (1 Bft) S 180 13,6 C 15,8 C
22.06.2012 01:56 15,8 C 87 % 1013,3 hPa 0,0 l/m 0,0 km/h (0 Bft) S-SW 202 13,6 C 15,8 C
22.06.2012 02:01 15,8 C 87 % 1013,4 hPa 0,0 l/m 0,0 km/h (0 Bft) S-SO 157 13,6 C 15,8 C
22.06.2012 02:06 15,8 C 87 % 1013,4 hPa 0,0 l/m 0,0 km/h (0 Bft) O-SO 112 13,6 C 15,8 C
22.06.2012 02:11 15,8 C 87 % 1013,3 hPa 0,0 l/m 1,8 km/h (1 Bft) SO 135 13,6 C 15,8 C
22.06.2012 02:16 15,8 C 87 % 1013,4 hPa 0,0 l/m 0,0 km/h (0 Bft) S-SO 157 13,6 C 15,8 C
22.06.2012 02:21 15,8 C 87 % 1013,4 hPa 0,0 l/m 1,1 km/h (1 Bft) S-SO 157 13,6 C 15,8 C
22.06.2012 02:26 15,8 C 87 % 1013,4 hPa 0,0 l/m 2,2 km/h (1 Bft) S 180 13,6 C 15,8 C
22.06.2012 02:31 15,8 C 87 % 1013,2 hPa 0,0 l/m 0,0 km/h (0 Bft) S-SO 157 13,6 C 15,8 C
22.06.2012 02:36 15,8 C 87 % 1013,0 hPa 0,0 l/m 0,0 km/h (0 Bft) S-SO 157 13,6 C 15,8 C
22.06.2012 02:41 15,8 C 87 % 1012,8 hPa 0,0 l/m 3,2 km/h (1 Bft) SO 135 13,6 C 15,8 C
22.06.2012 02:46 15,8 C 87 % 1012,7 hPa 0,0 l/m 0,0 km/h (0 Bft) O-SO 112 13,6 C 15,8 C
22.06.2012 02:51 15,6 C 87 % 1012,7 hPa 0,0 l/m 1,4 km/h (1 Bft) O-SO 112 13,4 C 15,6 C
22.06.2012 02:56 15,6 C 87 % 1012,7 hPa 0,0 l/m 0,0 km/h (0 Bft) S-SO 157 13,4 C 15,6 C
22.06.2012 03:01 15,6 C 87 % 1012,8 hPa 0,0 l/m 0,0 km/h (0 Bft) SO 135 13,4 C 15,6 C
22.06.2012 03:06 15,6 C 88 % 1012,7 hPa 0,0 l/m 0,0 km/h (0 Bft) SO 135 13,6 C 15,6 C
22.06.2012 03:11 15,6 C 88 % 1012,9 hPa 0,0 l/m 1,8 km/h (1 Bft) S-SO 157 13,6 C 15,6 C
22.06.2012 03:16 15,6 C 88 % 1013,0 hPa 0,0 l/m 1,4 km/h (1 Bft) S 180 13,6 C 15,6 C
22.06.2012 03:21 15,6 C 88 % 1013,0 hPa 0,0 l/m 0,0 km/h (0 Bft) S-SO 157 13,6 C 15,6 C
22.06.2012 03:26 15,6 C 88 % 1012,9 hPa 0,0 l/m 2,2 km/h (1 Bft) S-SO 157 13,6 C 15,6 C
22.06.2012 03:31 15,7 C 88 % 1013,0 hPa 0,0 l/m 1,4 km/h (1 Bft) SO 135 13,7 C 15,7 C
22.06.2012 03:36 15,6 C 88 % 1012,9 hPa 0,0 l/m 0,0 km/h (0 Bft) S-SO 157 13,6 C 15,6 C
22.06.2012 03:41 15,6 C 88 % 1012,9 hPa 0,0 l/m 0,0 km/h (0 Bft) O-SO 112 13,6 C 15,6 C
22.06.2012 03:46 15,6 C 88 % 1012,7 hPa 0,0 l/m 2,9 km/h (1 Bft) O 90 13,6 C 15,6 C
22.06.2012 03:51 15,6 C 88 % 1012,7 hPa 0,0 l/m 0,0 km/h (0 Bft) SO 135 13,6 C 15,6 C
22.06.2012 03:56 15,6 C 88 % 1012,6 hPa 0,0 l/m 1,1 km/h (1 Bft) SO 135 13,6 C 15,6 C
22.06.2012 04:01 15,5 C 88 % 1012,7 hPa 0,0 l/m 2,5 km/h (1 Bft) O 90 13,5 C 15,5 C
22.06.2012 04:06 15,5 C 88 % 1012,5 hPa 0,0 l/m 4,0 km/h (1 Bft) O-SO 112 13,5 C 15,5 C
22.06.2012 04:11 15,4 C 88 % 1012,4 hPa 0,0 l/m 2,5 km/h (1 Bft) O 90 13,4 C 15,4 C
22.06.2012 04:16 15,4 C 88 % 1012,4 hPa 0,0 l/m 1,4 km/h (1 Bft) O-SO 112 13,4 C 15,4 C
22.06.2012 04:21 15,4 C 89 % 1012,2 hPa 0,0 l/m 1,4 km/h (1 Bft) O-SO 112 13,6 C 15,4 C
22.06.2012 04:26 15,4 C 88 % 1012,3 hPa 0,0 l/m 0,0 km/h (0 Bft) SO 135 13,4 C 15,4 C
22.06.2012 04:31 15,4 C 88 % 1012,4 hPa 0,0 l/m 0,0 km/h (0 Bft) O-SO 112 13,4 C 15,4 C
22.06.2012 04:36 15,3 C 88 % 1012,7 hPa 0,0 l/m 0,0 km/h (0 Bft) S 180 13,3 C 15,3 C
22.06.2012 04:41 15,3 C 89 % 1012,7 hPa 0,0 l/m 0,0 km/h (0 Bft) S-SO 157 13,5 C 15,3 C
22.06.2012 04:46 15,4 C 89 % 1012,8 hPa 0,0 l/m 2,2 km/h (1 Bft) SO 135 13,6 C 15,4 C
22.06.2012 04:51 15,4 C 89 % 1012,8 hPa 0,0 l/m 2,2 km/h (1 Bft) SO 135 13,6 C 15,4 C
22.06.2012 04:56 15,4 C 89 % 1013,0 hPa 0,0 l/m 0,0 km/h (0 Bft) S-SO 157 13,6 C 15,4 C
22.06.2012 05:01 15,4 C 89 % 1012,9 hPa 0,0 l/m 2,2 km/h (1 Bft) S 180 13,6 C 15,4 C
22.06.2012 05:06 15,4 C 89 % 1012,8 hPa 0,0 l/m 2,5 km/h (1 Bft) S-SO 157 13,6 C 15,4 C
22.06.2012 05:11 15,4 C 89 % 1012,9 hPa 0,0 l/m 1,1 km/h (1 Bft) S 180 13,6 C 15,4 C
22.06.2012 05:16 15,4 C 89 % 1013,0 hPa 0,0 l/m 0,0 km/h (0 Bft) S-SO 157 13,6 C 15,4 C
22.06.2012 05:21 15,4 C 89 % 1012,9 hPa 0,0 l/m 1,8 km/h (1 Bft) SO 135 13,6 C 15,4 C
22.06.2012 05:26 15,5 C 89 % 1013,1 hPa 0,0 l/m 2,2 km/h (1 Bft) S-SO 157 13,7 C 15,5 C
22.06.2012 05:31 15,4 C 89 % 1013,1 hPa 0,0 l/m 0,0 km/h (0 Bft) S-SO 157 13,6 C 15,4 C
22.06.2012 05:36 15,5 C 89 % 1013,2 hPa 0,0 l/m 0,0 km/h (0 Bft) SO 135 13,7 C 15,5 C
22.06.2012 05:41 15,5 C 89 % 1013,2 hPa 0,0 l/m 0,0 km/h (0 Bft) S-SO 157 13,7 C 15,5 C
22.06.2012 05:46 15,5 C 89 % 1013,2 hPa 0,0 l/m 4,0 km/h (1 Bft) S-SO 157 13,7 C 15,5 C
22.06.2012 05:51 15,5 C 89 % 1013,2 hPa 0,0 l/m 6,1 km/h (2 Bft) S-SO 157 13,7 C 15,5 C
22.06.2012 05:56 15,5 C 89 % 1013,3 hPa 0,0 l/m 4,3 km/h (1 Bft) S 180 13,7 C 15,5 C
22.06.2012 06:01 15,6 C 89 % 1013,1 hPa 0,0 l/m 0,0 km/h (0 Bft) S 180 13,8 C 15,6 C
22.06.2012 06:06 15,6 C 89 % 1013,5 hPa 0,0 l/m 1,4 km/h (1 Bft) SW 225 13,8 C 15,6 C
22.06.2012 06:11 15,6 C 89 % 1013,5 hPa 0,0 l/m 1,4 km/h (1 Bft) S-SW 202 13,8 C 15,6 C
22.06.2012 06:16 15,7 C 89 % 1013,5 hPa 0,0 l/m 4,3 km/h (1 Bft) S-SW 202 13,9 C 15,7 C
22.06.2012 06:21 15,8 C 89 % 1013,5 hPa 0,0 l/m 7,2 km/h (2 Bft) SW 225 14,0 C 15,8 C
22.06.2012 06:26 15,8 C 89 % 1013,6 hPa 0,0 l/m 5,8 km/h (2 Bft) S-SW 202 14,0 C 15,8 C
22.06.2012 06:31 15,9 C 89 % 1013,6 hPa 0,0 l/m 3,2 km/h (1 Bft) SW 225 14,1 C 15,9 C
22.06.2012 06:36 15,9 C 89 % 1013,7 hPa 0,0 l/m 3,6 km/h (1 Bft) S 180 14,1 C 15,9 C
22.06.2012 06:41 15,9 C 89 % 1013,7 hPa 0,0 l/m 3,2 km/h (1 Bft) S-SO 157 14,1 C 15,9 C
22.06.2012 06:46 15,9 C 89 % 1013,7 hPa 0,0 l/m 3,6 km/h (1 Bft) SW 225 14,1 C 15,9 C
22.06.2012 06:51 16,0 C 89 % 1013,8 hPa 0,0 l/m 0,0 km/h (0 Bft) SW 225 14,2 C 16,0 C
22.06.2012 06:56 16,0 C 89 % 1013,8 hPa 0,0 l/m 10,4 km/h (2 Bft) SW 225 14,2 C 16,0 C
22.06.2012 07:01 16,0 C 89 % 1013,7 hPa 0,0 l/m 2,9 km/h (1 Bft) W 270 14,2 C 16,0 C
22.06.2012 07:06 16,1 C 89 % 1013,9 hPa 0,0 l/m 4,0 km/h (1 Bft) W-SW 247 14,3 C 16,1 C
22.06.2012 07:11 16,1 C 89 % 1013,8 hPa 0,0 l/m 0,0 km/h (0 Bft) W-SW 247 14,3 C 16,1 C
22.06.2012 07:16 16,2 C 88 % 1013,9 hPa 0,0 l/m 3,6 km/h (1 Bft) W-SW 247 14,2 C 16,2 C
22.06.2012 07:21 16,3 C 88 % 1013,8 hPa 0,0 l/m 8,6 km/h (2 Bft) W-SW 247 14,3 C 16,3 C
22.06.2012 07:26 16,4 C 88 % 1013,9 hPa 0,0 l/m 10,8 km/h (2 Bft) W-SW 247 14,4 C 16,4 C
22.06.2012 07:31 16,5 C 88 % 1013,9 hPa 0,0 l/m 3,6 km/h (1 Bft) W-SW 247 14,5 C 16,5 C
22.06.2012 07:36 16,6 C 88 % 1014,0 hPa 0,0 l/m 10,8 km/h (2 Bft) W-SW 247 14,6 C 16,6 C
22.06.2012 07:41 16,8 C 88 % 1014,2 hPa 0,0 l/m 4,7 km/h (1 Bft) NW 315 14,8 C 16,8 C
22.06.2012 07:46 16,9 C 87 % 1014,3 hPa 0,0 l/m 6,8 km/h (2 Bft) W 270 14,7 C 16,9 C
22.06.2012 07:51 17,0 C 87 % 1014,3 hPa 0,0 l/m 6,5 km/h (2 Bft) W-SW 247 14,8 C 17,0 C
22.06.2012 07:56 17,2 C 87 % 1014,2 hPa 0,0 l/m 5,0 km/h (1 Bft) SW 225 15,0 C 17,2 C
22.06.2012 08:01 17,3 C 86 % 1014,3 hPa 0,0 l/m 10,1 km/h (2 Bft) W 270 14,9 C 17,3 C
22.06.2012 08:06 17,3 C 86 % 1014,3 hPa 0,0 l/m 5,0 km/h (1 Bft) W 270 14,9 C 17,3 C
22.06.2012 08:11 17,4 C 85 % 1014,3 hPa 0,0 l/m 9,4 km/h (2 Bft) W-NW 292 14,8 C 17,4 C
22.06.2012 08:16 17,6 C 85 % 1014,4 hPa 0,0 l/m 9,4 km/h (2 Bft) W-NW 292 15,0 C 17,6 C
22.06.2012 08:21 17,9 C 84 % 1014,5 hPa 0,0 l/m 4,7 km/h (1 Bft) W-NW 292 15,2 C 17,9 C
22.06.2012 08:26 18,3 C 83 % 1014,7 hPa 0,0 l/m 13,0 km/h (3 Bft) W-NW 292 15,4 C 18,3 C
22.06.2012 08:31 18,5 C 81 % 1014,6 hPa 0,0 l/m 16,6 km/h (3 Bft) W-NW 292 15,2 C 18,5 C
22.06.2012 08:36 18,6 C 80 % 1014,7 hPa 0,0 l/m 3,6 km/h (1 Bft) NW 315 15,1 C 18,6 C
22.06.2012 08:41 18,8 C 79 % 1014,8 hPa 0,0 l/m 18,4 km/h (3 Bft) W-SW 247 15,1 C 18,8 C
22.06.2012 08:46 18,9 C 78 % 1014,8 hPa 0,0 l/m 13,0 km/h (3 Bft) NW 315 15,0 C 18,9 C
22.06.2012 08:51 19,1 C 77 % 1014,9 hPa 0,0 l/m 14,4 km/h (3 Bft) W-NW 292 15,0 C 19,1 C
22.06.2012 08:56 19,3 C 76 % 1014,9 hPa 0,0 l/m 15,1 km/h (3 Bft) W-NW 292 15,0 C 19,3 C
22.06.2012 09:01 19,5 C 75 % 1015,0 hPa 0,0 l/m 19,4 km/h (3 Bft) W-SW 247 14,9 C 19,5 C
22.06.2012 09:06 19,7 C 73 % 1015,0 hPa 0,0 l/m 10,4 km/h (2 Bft) W-NW 292 14,7 C 19,7 C
22.06.2012 09:11 19,8 C 72 % 1015,0 hPa 0,0 l/m 7,9 km/h (2 Bft) W 270 14,6 C 19,8 C
22.06.2012 09:16 19,9 C 71 % 1015,0 hPa 0,0 l/m 7,6 km/h (2 Bft) SW 225 14,5 C 19,9 C
22.06.2012 09:21 20,1 C 69 % 1015,1 hPa 0,0 l/m 9,4 km/h (2 Bft) W-NW 292 14,2 C 20,1 C
22.06.2012 09:26 20,1 C 69 % 1015,1 hPa 0,0 l/m 13,7 km/h (3 Bft) W-SW 247 14,2 C 20,1 C
22.06.2012 09:31 20,1 C 69 % 1015,3 hPa 0,0 l/m 11,2 km/h (2 Bft) W-NW 292 14,2 C 20,1 C
22.06.2012 09:36 20,2 C 68 % 1015,3 hPa 0,0 l/m 14,0 km/h (3 Bft) W 270 14,1 C 20,2 C
22.06.2012 09:41 20,3 C 67 % 1015,4 hPa 0,0 l/m 11,2 km/h (2 Bft) N-NW 337 14,0 C 20,3 C
22.06.2012 09:46 20,4 C 65 % 1015,5 hPa 0,0 l/m 15,8 km/h (3 Bft) W-NW 292 13,6 C 20,4 C
22.06.2012 09:51 20,4 C 64 % 1015,6 hPa 0,0 l/m 15,8 km/h (3 Bft) W-NW 292 13,4 C 20,4 C
22.06.2012 09:56 20,4 C 62 % 1015,6 hPa 0,0 l/m 20,5 km/h (4 Bft) W-NW 292 12,9 C 20,4 C
22.06.2012 10:01 20,5 C 62 % 1015,6 hPa 0,0 l/m 8,6 km/h (2 Bft) NW 315 13,0 C 20,5 C
22.06.2012 10:06 20,6 C 61 % 1015,8 hPa 0,0 l/m 7,6 km/h (2 Bft) W 270 12,8 C 20,6 C
22.06.2012 10:11 20,8 C 61 % 1015,6 hPa 0,0 l/m 9,7 km/h (2 Bft) NW 315 13,0 C 20,8 C
22.06.2012 10:16 20,9 C 61 % 1015,8 hPa 0,0 l/m 6,8 km/h (2 Bft) W 270 13,1 C 20,9 C
22.06.2012 10:21 21,1 C 60 % 1015,8 hPa 0,0 l/m 13,3 km/h (3 Bft) NW 315 13,0 C 21,1 C
22.06.2012 10:26 21,1 C 59 % 1015,7 hPa 0,0 l/m 6,1 km/h (2 Bft) W 270 12,8 C 21,1 C
22.06.2012 10:31 21,1 C 57 % 1015,8 hPa 0,0 l/m 10,8 km/h (2 Bft) W 270 12,2 C 21,1 C
22.06.2012 10:36 21,1 C 57 % 1015,9 hPa 0,0 l/m 18,7 km/h (3 Bft) NW 315 12,2 C 21,1 C
22.06.2012 10:41 21,3 C 58 % 1015,8 hPa 0,0 l/m 13,0 km/h (3 Bft) W-NW 292 12,7 C 21,3 C
22.06.2012 10:46 21,4 C 58 % 1015,8 hPa 0,0 l/m 12,6 km/h (3 Bft) W 270 12,8 C 21,4 C
22.06.2012 10:51 21,6 C 58 % 1016,0 hPa 0,0 l/m 3,2 km/h (1 Bft) W 270 13,0 C 21,6 C
22.06.2012 10:56 21,6 C 56 % 1016,1 hPa 0,0 l/m 6,5 km/h (2 Bft) W-NW 292 12,4 C 21,6 C
22.06.2012 11:01 21,5 C 54 % 1016,2 hPa 0,0 l/m 18,0 km/h (3 Bft) W-SW 247 11,8 C 21,5 C
22.06.2012 11:06 21,6 C 56 % 1016,3 hPa 0,0 l/m 13,3 km/h (3 Bft) NW 315 12,4 C 21,6 C
22.06.2012 11:11 21,6 C 55 % 1016,2 hPa 0,0 l/m 20,5 km/h (4 Bft) W-NW 292 12,2 C 21,6 C
22.06.2012 11:16 21,6 C 55 % 1016,3 hPa 0,0 l/m 17,6 km/h (3 Bft) W-SW 247 12,2 C 21,6 C
22.06.2012 11:21 21,6 C 55 % 1016,3 hPa 0,0 l/m 9,4 km/h (2 Bft) NW 315 12,2 C 21,6 C
22.06.2012 11:26 21,8 C 55 % 1016,4 hPa 0,0 l/m 5,0 km/h (1 Bft) W-SW 247 12,4 C 21,8 C
22.06.2012 11:31 21,8 C 56 % 1016,4 hPa 0,0 l/m 13,0 km/h (3 Bft) NW 315 12,6 C 21,8 C
22.06.2012 11:36 21,8 C 55 % 1016,4 hPa 0,0 l/m 16,6 km/h (3 Bft) S 180 12,4 C 21,8 C
22.06.2012 11:41 21,9 C 54 % 1016,5 hPa 0,0 l/m 6,5 km/h (2 Bft) W-SW 247 12,2 C 21,9 C
22.06.2012 11:46 22,0 C 54 % 1016,7 hPa 0,0 l/m 22,0 km/h (4 Bft) W 270 12,3 C 22,0 C
22.06.2012 11:51 21,8 C 53 % 1016,7 hPa 0,0 l/m 21,6 km/h (4 Bft) W-SW 247 11,8 C 21,8 C
22.06.2012 11:56 21,8 C 53 % 1016,5 hPa 0,0 l/m 10,8 km/h (2 Bft) W 270 11,8 C 21,8 C
22.06.2012 12:01 21,9 C 52 % 1016,7 hPa 0,0 l/m 6,5 km/h (2 Bft) W 270 11,6 C 21,9 C
22.06.2012 12:06 21,9 C 52 % 1016,6 hPa 0,0 l/m 15,5 km/h (3 Bft) NW 315 11,6 C 21,9 C
22.06.2012 12:11 22,1 C 52 % 1016,6 hPa 0,0 l/m 9,7 km/h (2 Bft) W-NW 292 11,8 C 22,1 C
22.06.2012 12:16 22,2 C 52 % 1016,5 hPa 0,0 l/m 9,4 km/h (2 Bft) W 270 11,9 C 22,2 C
22.06.2012 12:21 22,4 C 52 % 1016,4 hPa 0,0 l/m 11,5 km/h (2 Bft) SW 225 12,1 C 22,4 C
22.06.2012 12:26 22,6 C 52 % 1016,6 hPa 0,0 l/m 18,0 km/h (3 Bft) W-NW 292 12,2 C 22,6 C
22.06.2012 12:31 22,8 C 51 % 1016,5 hPa 0,0 l/m 14,4 km/h (3 Bft) W-SW 247 12,1 C 22,8 C
22.06.2012 12:36 22,9 C 48 % 1016,6 hPa 0,0 l/m 19,1 km/h (3 Bft) W-SW 247 11,3 C 22,9 C
22.06.2012 12:41 23,1 C 49 % 1016,7 hPa 0,0 l/m 9,4 km/h (2 Bft) W-NW 292 11,8 C 23,1 C
22.06.2012 12:46 23,3 C 48 % 1016,6 hPa 0,0 l/m 16,9 km/h (3 Bft) W-SW 247 11,7 C 23,3 C
22.06.2012 12:51 23,3 C 48 % 1016,7 hPa 0,0 l/m 15,5 km/h (3 Bft) W-NW 292 11,7 C 23,3 C
22.06.2012 12:56 23,3 C 46 % 1016,7 hPa 0,0 l/m 11,2 km/h (2 Bft) W-NW 292 11,0 C 23,3 C
22.06.2012 13:01 23,2 C 47 % 1016,7 hPa 0,0 l/m 23,0 km/h (4 Bft) W-SW 247 11,3 C 23,2 C
22.06.2012 13:06 23,3 C 46 % 1016,7 hPa 0,0 l/m 7,6 km/h (2 Bft) NW 315 11,0 C 23,3 C
22.06.2012 13:11 23,3 C 46 % 1016,6 hPa 0,0 l/m 20,5 km/h (4 Bft) W-NW 292 11,0 C 23,3 C
22.06.2012 13:16 23,4 C 45 % 1016,7 hPa 0,0 l/m 14,0 km/h (3 Bft) W 270 10,8 C 23,4 C
22.06.2012 13:21 23,5 C 43 % 1016,8 hPa 0,0 l/m 20,5 km/h (4 Bft) W-SW 247 10,2 C 23,5 C
22.06.2012 13:26 23,6 C 44 % 1016,7 hPa 0,0 l/m 22,0 km/h (4 Bft) W-SW 247 10,6 C 23,6 C
22.06.2012 13:31 23,6 C 44 % 1016,9 hPa 0,0 l/m 12,2 km/h (2 Bft) W 270 10,6 C 23,6 C
22.06.2012 13:36 23,6 C 44 % 1016,9 hPa 0,0 l/m 18,0 km/h (3 Bft) W-NW 292 10,6 C 23,6 C
22.06.2012 13:41 23,8 C 44 % 1016,8 hPa 0,0 l/m 5,8 km/h (2 Bft) NW 315 10,8 C 23,8 C
22.06.2012 13:46 23,9 C 44 % 1016,9 hPa 0,0 l/m 13,0 km/h (3 Bft) SW 225 10,9 C 23,9 C
22.06.2012 13:51 23,9 C 43 % 1016,9 hPa 0,0 l/m 19,8 km/h (3 Bft) W-SW 247 10,5 C 23,9 C
22.06.2012 13:56 23,9 C 43 % 1016,8 hPa 0,0 l/m 8,3 km/h (2 Bft) W-SW 247 10,5 C 23,9 C
22.06.2012 14:01 24,1 C 43 % 1016,9 hPa 0,0 l/m 13,7 km/h (3 Bft) S 180 10,7 C 24,1 C
22.06.2012 14:06 24,2 C 43 % 1016,8 hPa 0,0 l/m 16,2 km/h (3 Bft) W-SW 247 10,8 C 24,2 C
22.06.2012 14:11 24,1 C 42 % 1016,8 hPa 0,0 l/m 5,8 km/h (2 Bft) W 270 10,4 C 24,1 C
22.06.2012 14:16 23,9 C 43 % 1017,0 hPa 0,0 l/m 13,7 km/h (3 Bft) W-NW 292 10,5 C 23,9 C
22.06.2012 14:21 23,9 C 44 % 1016,9 hPa 0,0 l/m 3,2 km/h (1 Bft) W-NW 292 10,9 C 23,9 C
22.06.2012 14:26 23,9 C 44 % 1016,8 hPa 0,0 l/m 5,8 km/h (2 Bft) W 270 10,9 C 23,9 C
22.06.2012 14:31 24,1 C 44 % 1016,7 hPa 0,0 l/m 8,6 km/h (2 Bft) W-SW 247 11,1 C 24,1 C
22.06.2012 14:36 24,3 C 43 % 1017,0 hPa 0,0 l/m 4,7 km/h (1 Bft) W 270 10,9 C 24,3 C
22.06.2012 14:41 24,1 C 43 % 1016,9 hPa 0,0 l/m 4,0 km/h (1 Bft) W-NW 292 10,7 C 24,1 C
22.06.2012 14:46 23,8 C 43 % 1017,0 hPa 0,0 l/m 10,8 km/h (2 Bft) W-SW 247 10,5 C 23,8 C
22.06.2012 14:51 23,7 C 44 % 1016,8 hPa 0,0 l/m 6,5 km/h (2 Bft) W 270 10,7 C 23,7 C
22.06.2012 14:56 23,5 C 43 % 1017,1 hPa 0,0 l/m 6,8 km/h (2 Bft) W 270 10,2 C 23,5 C
22.06.2012 15:01 23,3 C 43 % 1017,1 hPa 0,0 l/m 4,7 km/h (1 Bft) W 270 10,0 C 23,3 C
22.06.2012 15:06 23,1 C 44 % 1017,1 hPa 0,0 l/m 3,2 km/h (1 Bft) W 270 10,2 C 23,1 C
22.06.2012 15:11 22,9 C 44 % 1017,3 hPa 0,0 l/m 8,3 km/h (2 Bft) W-NW 292 10,0 C 22,9 C
22.06.2012 15:16 22,6 C 45 % 1017,1 hPa 0,0 l/m 7,2 km/h (2 Bft) W 270 10,1 C 22,6 C
22.06.2012 15:21 22,6 C 46 % 1017,2 hPa 0,0 l/m 2,2 km/h (1 Bft) W 270 10,4 C 22,6 C
22.06.2012 15:26 22,7 C 46 % 1017,1 hPa 0,0 l/m 8,3 km/h (2 Bft) NW 315 10,5 C 22,7 C
22.06.2012 15:31 22,9 C 45 % 1017,2 hPa 0,0 l/m 4,0 km/h (1 Bft) W 270 10,3 C 22,9 C
22.06.2012 15:36 23,4 C 46 % 1017,1 hPa 0,0 l/m 3,6 km/h (1 Bft) W-NW 292 11,1 C 23,4 C
22.06.2012 15:41 23,8 C 45 % 1017,1 hPa 0,0 l/m 5,8 km/h (2 Bft) W-SW 247 11,1 C 23,8 C
22.06.2012 15:46 24,1 C 44 % 1017,1 hPa 0,0 l/m 6,1 km/h (2 Bft) W 270 11,1 C 24,1 C
22.06.2012 15:51 24,4 C 44 % 1017,2 hPa 0,0 l/m 12,6 km/h (3 Bft) W-NW 292 11,3 C 24,4 C
22.06.2012 15:56 24,1 C 44 % 1017,3 hPa 0,0 l/m 4,7 km/h (1 Bft) W 270 11,1 C 24,1 C
22.06.2012 16:01 23,8 C 45 % 1017,1 hPa 0,0 l/m 9,0 km/h (2 Bft) W 270 11,1 C 23,8 C
22.06.2012 16:06 23,5 C 45 % 1017,2 hPa 0,0 l/m 7,9 km/h (2 Bft) W-NW 292 10,9 C 23,5 C
22.06.2012 16:11 23,4 C 45 % 1017,3 hPa 0,0 l/m 8,3 km/h (2 Bft) W-NW 292 10,8 C 23,4 C
22.06.2012 16:16 23,5 C 45 % 1017,4 hPa 0,0 l/m 13,7 km/h (3 Bft) W-NW 292 10,9 C 23,5 C
22.06.2012 16:21 23,8 C 45 % 1017,3 hPa 0,0 l/m 18,0 km/h (3 Bft) W 270 11,1 C 23,8 C
22.06.2012 16:26 23,9 C 45 % 1017,3 hPa 0,0 l/m 10,1 km/h (2 Bft) W 270 11,2 C 23,9 C
22.06.2012 16:31 24,1 C 45 % 1017,3 hPa 0,0 l/m 13,0 km/h (3 Bft) SW 225 11,4 C 24,1 C
22.06.2012 16:36 24,1 C 45 % 1017,1 hPa 0,0 l/m 5,4 km/h (1 Bft) W-SW 247 11,4 C 24,1 C
22.06.2012 16:41 24,4 C 45 % 1017,0 hPa 0,0 l/m 11,9 km/h (2 Bft) W 270 11,7 C 24,4 C
22.06.2012 16:46 24,5 C 44 % 1017,2 hPa 0,0 l/m 3,6 km/h (1 Bft) W 270 11,4 C 24,5 C
22.06.2012 16:51 24,5 C 44 % 1017,1 hPa 0,0 l/m 12,6 km/h (3 Bft) S-SW 202 11,4 C 24,5 C
22.06.2012 16:56 24,6 C 43 % 1017,2 hPa 0,0 l/m 8,3 km/h (2 Bft) W-SW 247 11,2 C 24,6 C
22.06.2012 17:01 24,8 C 42 % 1017,2 hPa 0,0 l/m 15,8 km/h (3 Bft) W-SW 247 11,0 C 24,8 C
22.06.2012 17:06 24,9 C 42 % 1017,3 hPa 0,0 l/m 17,6 km/h (3 Bft) W-SW 247 11,1 C 24,9 C
22.06.2012 17:11 24,9 C 41 % 1017,4 hPa 0,0 l/m 20,5 km/h (4 Bft) W-SW 247 10,7 C 24,9 C
22.06.2012 17:16 24,9 C 41 % 1017,4 hPa 0,0 l/m 5,4 km/h (1 Bft) W-NW 292 10,7 C 24,9 C
22.06.2012 17:21 24,8 C 41 % 1017,4 hPa 0,0 l/m 13,7 km/h (3 Bft) W 270 10,6 C 24,8 C
22.06.2012 17:26 24,8 C 41 % 1017,4 hPa 0,0 l/m 15,5 km/h (3 Bft) W-NW 292 10,6 C 24,8 C
22.06.2012 17:31 24,9 C 41 % 1017,5 hPa 0,0 l/m 6,5 km/h (2 Bft) SW 225 10,7 C 24,9 C
22.06.2012 17:36 24,7 C 40 % 1017,4 hPa 0,0 l/m 15,5 km/h (3 Bft) W-SW 247 10,2 C 24,7 C
22.06.2012 17:41 24,3 C 40 % 1017,5 hPa 0,0 l/m 12,2 km/h (2 Bft) W-NW 292 9,8 C 24,3 C
22.06.2012 17:46 24,1 C 42 % 1017,5 hPa 0,0 l/m 14,0 km/h (3 Bft) W-SW 247 10,4 C 24,1 C
22.06.2012 17:51 23,8 C 42 % 1017,5 hPa 0,0 l/m 8,3 km/h (2 Bft) W-SW 247 10,1 C 23,8 C
22.06.2012 17:56 23,9 C 42 % 1017,6 hPa 0,0 l/m 8,3 km/h (2 Bft) W-SW 247 10,2 C 23,9 C
22.06.2012 18:01 24,2 C 43 % 1017,4 hPa 0,0 l/m 14,8 km/h (3 Bft) W-SW 247 10,8 C 24,2 C
22.06.2012 18:06 24,4 C 42 % 1017,6 hPa 0,0 l/m 17,3 km/h (3 Bft) W 270 10,6 C 24,4 C
22.06.2012 18:11 24,2 C 41 % 1017,5 hPa 0,0 l/m 16,9 km/h (3 Bft) SW 225 10,1 C 24,2 C
22.06.2012 18:16 24,0 C 41 % 1017,4 hPa 0,0 l/m 17,3 km/h (3 Bft) SW 225 9,9 C 24,0 C
22.06.2012 18:21 23,7 C 41 % 1017,5 hPa 0,0 l/m 13,0 km/h (3 Bft) W-SW 247 9,7 C 23,7 C
22.06.2012 18:26 23,3 C 42 % 1017,5 hPa 0,0 l/m 13,3 km/h (3 Bft) W 270 9,7 C 23,3 C
22.06.2012 18:31 23,1 C 43 % 1017,6 hPa 0,0 l/m 30,6 km/h (5 Bft) W-SW 247 9,8 C 23,1 C
22.06.2012 18:36 22,7 C 43 % 1017,6 hPa 0,0 l/m 11,9 km/h (2 Bft) W 270 9,5 C 22,7 C
22.06.2012 18:41 22,5 C 44 % 1017,7 hPa 0,0 l/m 4,3 km/h (1 Bft) W 270 9,6 C 22,5 C
22.06.2012 18:46 22,6 C 45 % 1017,8 hPa 0,0 l/m 18,4 km/h (3 Bft) W-SW 247 10,1 C 22,6 C
22.06.2012 18:51 22,8 C 44 % 1017,9 hPa 0,0 l/m 8,6 km/h (2 Bft) W-NW 292 9,9 C 22,8 C
22.06.2012 18:56 22,9 C 45 % 1017,9 hPa 0,0 l/m 5,8 km/h (2 Bft) W-NW 292 10,3 C 22,9 C
22.06.2012 19:01 22,9 C 44 % 1018,0 hPa 0,0 l/m 8,3 km/h (2 Bft) W 270 10,0 C 22,9 C
22.06.2012 19:06 23,1 C 44 % 1018,2 hPa 0,0 l/m 19,1 km/h (3 Bft) W-SW 247 10,2 C 23,1 C
22.06.2012 19:11 23,2 C 44 % 1018,2 hPa 0,0 l/m 30,6 km/h (5 Bft) W-SW 247 10,3 C 23,2 C
22.06.2012 19:16 23,3 C 44 % 1018,2 hPa 0,0 l/m 4,0 km/h (1 Bft) W-NW 292 10,4 C 23,3 C
22.06.2012 19:21 23,3 C 43 % 1018,2 hPa 0,0 l/m 9,0 km/h (2 Bft) SW 225 10,0 C 23,3 C
22.06.2012 19:26 23,3 C 43 % 1018,4 hPa 0,0 l/m 9,4 km/h (2 Bft) W 270 10,0 C 23,3 C
22.06.2012 19:31 23,1 C 41 % 1018,4 hPa 0,0 l/m 13,3 km/h (3 Bft) W-NW 292 9,1 C 23,1 C
22.06.2012 19:36 23,1 C 42 % 1018,5 hPa 0,0 l/m 10,1 km/h (2 Bft) NW 315 9,5 C 23,1 C
22.06.2012 19:41 22,9 C 42 % 1018,5 hPa 0,0 l/m 5,4 km/h (1 Bft) W-NW 292 9,3 C 22,9 C
22.06.2012 19:46 22,9 C 43 % 1018,5 hPa 0,0 l/m 10,4 km/h (2 Bft) W-NW 292 9,6 C 22,9 C
22.06.2012 19:51 22,8 C 42 % 1018,5 hPa 0,0 l/m 6,1 km/h (2 Bft) NW 315 9,2 C 22,8 C
22.06.2012 19:56 22,8 C 43 % 1018,6 hPa 0,0 l/m 4,7 km/h (1 Bft) W 270 9,6 C 22,8 C
22.06.2012 20:01 22,6 C 42 % 1018,6 hPa 0,0 l/m 5,8 km/h (2 Bft) SW 225 9,0 C 22,6 C
22.06.2012 20:06 22,5 C 43 % 1018,8 hPa 0,0 l/m 18,4 km/h (3 Bft) W 270 9,3 C 22,5 C
22.06.2012 20:11 22,3 C 43 % 1018,8 hPa 0,0 l/m 8,3 km/h (2 Bft) W-NW 292 9,1 C 22,3 C
22.06.2012 20:16 22,2 C 44 % 1018,8 hPa 0,0 l/m 8,6 km/h (2 Bft) W-SW 247 9,4 C 22,2 C
22.06.2012 20:21 22,1 C 44 % 1019,0 hPa 0,0 l/m 13,3 km/h (3 Bft) W 270 9,3 C 22,1 C
22.06.2012 20:26 21,9 C 44 % 1019,0 hPa 0,0 l/m 4,7 km/h (1 Bft) W-NW 292 9,1 C 21,9 C
22.06.2012 20:31 21,8 C 45 % 1019,0 hPa 0,0 l/m 4,0 km/h (1 Bft) W-SW 247 9,3 C 21,8 C
22.06.2012 20:36 21,4 C 45 % 1019,0 hPa 0,0 l/m 5,4 km/h (1 Bft) W-NW 292 9,0 C 21,4 C
22.06.2012 20:41 21,3 C 46 % 1019,1 hPa 0,0 l/m 4,3 km/h (1 Bft) W-SW 247 9,2 C 21,3 C
22.06.2012 20:46 21,1 C 47 % 1019,2 hPa 0,0 l/m 2,5 km/h (1 Bft) W 270 9,3 C 21,1 C
22.06.2012 20:51 20,9 C 47 % 1018,9 hPa 0,0 l/m 6,5 km/h (2 Bft) W 270 9,2 C 20,9 C
22.06.2012 20:56 20,8 C 47 % 1018,9 hPa 0,0 l/m 2,9 km/h (1 Bft) W-NW 292 9,1 C 20,8 C
22.06.2012 21:01 20,6 C 48 % 1019,0 hPa 0,0 l/m 2,9 km/h (1 Bft) W-NW 292 9,2 C 20,6 C
22.06.2012 21:06 20,6 C 48 % 1019,0 hPa 0,0 l/m 1,1 km/h (1 Bft) W 270 9,2 C 20,6 C
22.06.2012 21:11 20,5 C 49 % 1019,0 hPa 0,0 l/m 0,0 km/h (0 Bft) W-SW 247 9,4 C 20,5 C
22.06.2012 21:16 20,4 C 50 % 1019,2 hPa 0,0 l/m 5,0 km/h (1 Bft) W 270 9,6 C 20,4 C
22.06.2012 21:21 20,3 C 50 % 1019,2 hPa 0,0 l/m 2,9 km/h (1 Bft) W-SW 247 9,5 C 20,3 C
22.06.2012 21:26 20,3 C 50 % 1019,3 hPa 0,0 l/m 4,3 km/h (1 Bft) W-SW 247 9,5 C 20,3 C
22.06.2012 21:31 20,1 C 50 % 1019,3 hPa 0,0 l/m 4,0 km/h (1 Bft) S-SW 202 9,3 C 20,1 C
22.06.2012 21:36 20,0 C 51 % 1019,4 hPa 0,0 l/m 4,0 km/h (1 Bft) W 270 9,6 C 20,0 C
22.06.2012 21:41 19,9 C 51 % 1019,5 hPa 0,0 l/m 4,0 km/h (1 Bft) S-SW 202 9,5 C 19,9 C
22.06.2012 21:46 19,8 C 51 % 1019,6 hPa 0,0 l/m 0,0 km/h (0 Bft) SW 225 9,4 C 19,8 C
22.06.2012 21:51 19,7 C 52 % 1019,7 hPa 0,0 l/m 4,7 km/h (1 Bft) W-SW 247 9,6 C 19,7 C
22.06.2012 21:56 19,6 C 52 % 1019,6 hPa 0,0 l/m 2,9 km/h (1 Bft) W 270 9,5 C 19,6 C
22.06.2012 22:01 19,5 C 53 % 1019,7 hPa 0,0 l/m 4,0 km/h (1 Bft) W-SW 247 9,7 C 19,5 C
22.06.2012 22:06 19,3 C 53 % 1019,8 hPa 0,0 l/m 5,4 km/h (1 Bft) W-SW 247 9,5 C 19,3 C
22.06.2012 22:11 19,2 C 53 % 1019,7 hPa 0,0 l/m 9,4 km/h (2 Bft) W 270 9,4 C 19,2 C
22.06.2012 22:16 19,1 C 53 % 1019,8 hPa 0,0 l/m 5,4 km/h (1 Bft) W 270 9,3 C 19,1 C
22.06.2012 22:21 18,9 C 53 % 1019,9 hPa 0,0 l/m 6,1 km/h (2 Bft) W 270 9,1 C 18,9 C
22.06.2012 22:26 18,8 C 53 % 1020,0 hPa 0,0 l/m 5,0 km/h (1 Bft) W-SW 247 9,0 C 18,8 C
22.06.2012 22:31 18,7 C 54 % 1020,0 hPa 0,0 l/m 8,3 km/h (2 Bft) W-SW 247 9,2 C 18,7 C
22.06.2012 22:36 18,6 C 54 % 1019,9 hPa 0,0 l/m 7,9 km/h (2 Bft) W-SW 247 9,1 C 18,6 C
22.06.2012 22:41 18,5 C 54 % 1019,8 hPa 0,0 l/m 4,3 km/h (1 Bft) W 270 9,0 C 18,5 C
22.06.2012 22:46 18,5 C 55 % 1019,9 hPa 0,0 l/m 2,5 km/h (1 Bft) W-SW 247 9,3 C 18,5 C
22.06.2012 22:51 18,4 C 55 % 1019,9 hPa 0,0 l/m 6,5 km/h (2 Bft) W-SW 247 9,2 C 18,4 C
22.06.2012 22:56 18,4 C 55 % 1020,0 hPa 0,0 l/m 3,2 km/h (1 Bft) W-SW 247 9,2 C 18,4 C
22.06.2012 23:01 18,3 C 55 % 1020,0 hPa 0,0 l/m 4,7 km/h (1 Bft) SW 225 9,1 C 18,3 C
22.06.2012 23:06 18,2 C 56 % 1020,0 hPa 0,0 l/m 4,7 km/h (1 Bft) W-SW 247 9,3 C 18,2 C
22.06.2012 23:11 18,1 C 56 % 1020,2 hPa 0,0 l/m 4,7 km/h (1 Bft) W-SW 247 9,2 C 18,1 C
22.06.2012 23:16 18,1 C 56 % 1020,2 hPa 0,0 l/m 2,5 km/h (1 Bft) S-SW 202 9,2 C 18,1 C
22.06.2012 23:21 18,1 C 56 % 1020,3 hPa 0,0 l/m 5,4 km/h (1 Bft) W-SW 247 9,2 C 18,1 C
22.06.2012 23:26 17,9 C 56 % 1020,3 hPa 0,0 l/m 0,0 km/h (0 Bft) SW 225 9,0 C 17,9 C
22.06.2012 23:31 17,9 C 57 % 1020,3 hPa 0,0 l/m 5,0 km/h (1 Bft) S 180 9,3 C 17,9 C
22.06.2012 23:36 17,8 C 57 % 1020,3 hPa 0,0 l/m 2,9 km/h (1 Bft) S 180 9,2 C 17,8 C
22.06.2012 23:41 17,8 C 57 % 1020,3 hPa 0,0 l/m 4,3 km/h (1 Bft) S-SW 202 9,2 C 17,8 C
22.06.2012 23:46 17,6 C 57 % 1020,2 hPa 0,0 l/m 3,6 km/h (1 Bft) S-SW 202 9,0 C 17,6 C
22.06.2012 23:51 17,5 C 57 % 1020,4 hPa 0,0 l/m 3,6 km/h (1 Bft) S-SO 157 8,9 C 17,5 C
22.06.2012 23:56 17,4 C 58 % 1020,4 hPa 0,0 l/m 2,5 km/h (1 Bft) S-SO 157 9,1 C 17,4 C
_ Min-Zeit 04:36 17:36 04:21 - 00:01 - - 23:51 04:36
Minimum _ 15,3 C 40 % 1012,2 hPa - 0,0 km/h (0 Bft) - - 8,9 C 15,3 C
_ Max-Zeit 17:06 04:21 23:51 00:01 18:31 - - 08:26 17:06
Maximum _ 24,9 C 89 % 1020,4 hPa 0,0 l/m 30,6 km/h
W-SW (5 Bft)
- - 15,4 C 24,9 C
Durchschnitt _ 19,8 C 64 % 1016,0 hPa #0,0 l/m 7,3 km/h (2 Bft) W-SW - 11,9 C 19,8 C
(c) by David Heller